Vorticity
5 14 31 26 21 17 18 29 24 -5 12 3 9 -49 -1 -25 19 -1 -12 4 -27 13 34 2 2 2 2 -0 0 2 4 7 5 3 2 10 3 11 8 1 7 3 5 3 5 6 5 4 4
8 29 26 18 11 13 4 -4 10 -5 23 22 17 28 12 43 9 10 -25 -14 4 -1 11 13 7 6 5 4 4 4 7 6 3 3 8 8 10 6 6 3 4 4 2 6 7 5 3 3 4
23 29 26 15 15 1 2 3 16 33 -25 16 -22 7 1 39 91 -2 -6 18 3 31 3 -15 6 6 -4 4 9 5 3 2 1 2 11 6 -2 -1 5 5 8 10 7 1 5 5 6 3 4
24 30 19 4 6 29 5 18 51 -6 -9 1 9 -0 -6 1 -44 3 11 3 16 -46 -14 9 30 2 -25 12 8 1 2 3 2 5 7 7 4 7 6 8 7 9 7 7 6 4 3 7 5
27 16 19 -9 4 -0 8 8 -11 22 4 8 24 2 14 59 20 5 3 12 3 -10 13 -13 5 1 19 18 7 -1 2 7 12 9 11 4 4 6 4 8 -2 6 2 8 7 5 6 6 9
25 20 1 -3 17 12 -5 19 8 1 8 14 20 23 1 -34 4 14 9 14 10 13 14 12 6 -2 6 4 6 7 5 9 3 12 1 1 8 6 1 10 1 10 4 8 7 7 7 12 -4
15 17 14 6 13 -1 6 18 30 36 11 -6 -1 27 4 43 15 6 8 11 0 13 15 4 2 5 12 -3 0 -2 6 3 -8 -0 7 -1 6 11 3 6 -3 2 7 6 8 9 -2 20 8
11 15 -4 8 -3 22 13 3 8 23 4 -7 31 22 3 24 1 5 8 7 9 3 1 7 18 -2 36 1 8 6 4 10 11 10 4 -2 6 5 6 1 12 10 2 8 10 19 7 7 8
12 -3 5 9 9 7 -2 2 9 9 13 10 27 -10 1 13 5 5 5 7 7 10 6 8 15 -7 -3 29 7 -1 21 4 -3 10 4 29 4 1 -2 3 12 5 10 20 7 7 6 4 3
13 -2 10 8 -1 -4 10 22 14 -21 12 8 -23 10 12 11 6 2 7 6 7 7 11 0 4 -10 1 31 2 41 43 7 -13 -12 24 13 -7 -13 38 12 4 18 16 6 4 3 5 5 3
3 -13 9 -10 13 22 11 8 15 24 27 30 37 7 8 1 7 10 12 4 10 3 5 7 9 4 6 3 21 2 10 14 -14 -9 15 -1 26 3 15 8 18 16 5 1 0 9 6 7 11
8 9 2 6 19 -1 3 2 9 8 13 24 -4 1 17 4 6 6 12 6 3 8 5 -1 -1 -0 2 6 -11 20 -9 -6 -18 38 25 56 12 14 13 19 12 4 -1 1 9 -0 10 6 5
6 6 3 19 9 4 3 5 5 -2 5 1 18 37 10 13 7 6 11 9 9 3 1 11 7 8 10 18 31 2 1 -9 36 -3 17 7 22 11 27 10 1 1 5 8 7 9 5 4 -0
7 14 12 2 17 5 12 12 6 -0 8 6 17 41 19 -0 2 12 4 -1 1 4 6 5 4 6 14 61 -14 -11 31 16 -19 16 8 22 26 43 16 -2 4 5 2 4 13 11 2 -1 1
12 11 10 -14 12 1 6 16 -9 16 -0 11 12 14 37 18 15 21 8 3 6 12 12 9 24 20 5 16 12 21 -8 13 13 14 33 19 40 8 -2 4 3 5 12 14 5 -0 -0 1 1
11 12 2 -25 23 -8 6 -6 10 -0 5 9 5 6 30 31 14 8 20 18 23 8 25 12 2 11 16 12 7 2 7 20 21 -3 34 27 1 4 4 2 7 12 8 2 1 0 0 1 2
-2 5 -8 21 4 9 7 6 59 -5 -0 12 8 7 16 35 47 20 14 8 23 13 28 29 9 16 11 22 36 46 45 36 31 10 2 3 4 3 4 1 7 11 3 2 0 0 1 1 3
-2 15 1 0 7 30 10 2 -1 20 2 20 13 7 9 11 5 20 7 18 11 26 37 39 42 54 36 31 4 3 3 1 0 -1 2 3 3 0 0 4 9 8 4 2 1 0 1 3 -5
6 11 6 -2 19 8 8 1 8 47 -10 15 5 9 7 4 12 8 0 4 2 4 7 9 7 4 3 4 4 3 3 4 4 4 4 3 3 2 5 3 6 5 3 1 0 1 -2 -2 0
24 28 -3 7 15 4 -4 -2 14 -6 5 9 10 4 4 10 7 5 5 4 7 2 -1 2 5 7 4 0 2 3 4 4 5 6 7 6 7 7 9 9 4 3 1 0 0 -0 2 5 7
18 33 3 2 -6 11 -2 5 12 0 3 -12 14 15 11 9 9 4 4 4 6 4 6 7 6 6 7 7 7 6 6 5 7 10 14 12 10 9 9 8 0 2 1 0 -0 4 8 4 8
18 6 -1 18 5 -12 6 5 -9 33 31 -11 12 6 15 12 10 7 6 6 6 6 6 4 3 4 4 6 6 7 7 9 6 4 10 8 8 4 5 -0 2 1 4 9 9 3 9 4 1
10 13 4 21 20 8 10 2 13 16 3 -21 6 -2 11 9 9 10 7 8 8 7 5 3 2 2 3 4 5 6 5 3 8 6 4 9 7 4 3 3 2 1 4 4 4 7 11 6 9
4 8 12 7 8 14 14 8 0 31 13 12 -10 4 2 6 0 2 6 5 8 9 7 5 3 4 4 7 0 6 4 7 5 17 5 5 39 3 6 3 6 0 4 7 10 4 1 8 -3
-1 7 12 2 10 9 -3 2 12 12 7 5 -3 1 6 4 2 2 9 10 11 5 10 11 9 8 6 7 7 11 24 5 -13 2 9 39 39 69 -0 9 4 15 12 4 10 6 5 5 7
4 2 8 16 15 3 11 19 6 6 -28 -6 2 13 5 -4 -1 -1 7 3 7 8 6 5 7 7 7 7 11 9 8 35 -3 -0 5 -1 1 14 1 11 6 5 5 4 10 7 2 17 -3
10 2 22 -11 3 -5 8 50 -1 3 16 2 6 -0 4 16 3 11 1 5 3 3 6 6 6 7 9 8 24 14 10 11 6 3 2 2 8 11 1 7 3 4 6 8 9 9 12 2 12
3 6 13 0 5 13 4 -3 2 10 4 9 9 9 6 6 10 9 7 8 8 7 4 3 7 -2 2 5 5 1 2 12 2 1 2 5 5 2 6 5 2 5 7 6 12 9 12 4 10
8 1 6 -2 13 3 8 -2 13 9 0 2 4 7 17 -1 16 14 12 5 7 -3 -4 -1 -3 4 7 6 5 4 5 -0 2 3 5 5 5 5 7 6 7 6 11 8 6 7 7 8 13
8 5 -2 -2 -2 14 16 18 4 2 6 1 8 4 12 12 9 22 12 12 -2 -2 7 1 7 2 11 1 13 4 2 5 8 6 6 13 2 8 8 6 8 6 6 7 5 6 8 8 7
Height
5791 5785 5778 5774 5774 5770 5771 5773 5776 5779 5778 5776 5780 5782 5780 5780 5787 5792 5783 5787 5780 5773 5785 5804 5810 5814 5816 5817 5819 5820 5821 5823 5825 5826 5828 5830 5830 5830 5832 5833 5834 5834 5834 5834 5835 5836 5835 5835 5836
5785 5778 5773 5769 5770 5769 5773 5778 5781 5782 5770 5774 5778 5782 5784 5779 5781 5789 5777 5778 5788 5791 5786 5797 5803 5807 5810 5811 5813 5815 5817 5818 5820 5822 5824 5826 5826 5827 5828 5829 5830 5831 5831 5832 5832 5832 5833 5832 5833
5778 5771 5769 5767 5767 5770 5774 5773 5773 5775 5766 5774 5779 5779 5778 5767 5766 5779 5782 5784 5782 5788 5793 5794 5796 5802 5804 5805 5809 5810 5812 5814 5815 5818 5820 5822 5822 5823 5824 5825 5826 5826 5828 5829 5829 5829 5830 5832 5831
5771 5769 5767 5767 5768 5772 5774 5771 5768 5766 5771 5772 5771 5776 5770 5767 5757 5778 5776 5782 5782 5785 5790 5796 5788 5793 5794 5799 5803 5806 5808 5810 5811 5814 5816 5817 5817 5818 5819 5821 5822 5823 5824 5824 5825 5826 5827 5828 5828
5768 5766 5766 5767 5770 5771 5774 5769 5766 5766 5767 5769 5773 5774 5761 5749 5763 5772 5773 5777 5779 5783 5785 5790 5782 5783 5775 5793 5798 5800 5803 5806 5807 5809 5811 5812 5813 5813 5815 5817 5818 5819 5820 5821 5821 5822 5824 5825 5826
5765 5765 5767 5771 5772 5769 5763 5762 5762 5763 5763 5760 5760 5755 5760 5755 5763 5768 5770 5771 5773 5781 5782 5781 5784 5785 5787 5791 5795 5797 5799 5801 5802 5804 5806 5807 5808 5808 5810 5813 5814 5815 5817 5817 5818 5819 5821 5822 5824
5765 5764 5767 5771 5770 5764 5762 5762 5762 5761 5757 5758 5750 5756 5757 5752 5755 5759 5761 5764 5769 5777 5777 5776 5779 5781 5784 5785 5788 5792 5794 5796 5796 5799 5801 5804 5803 5804 5805 5808 5810 5811 5813 5814 5815 5816 5819 5820 5822
5764 5765 5766 5768 5769 5765 5760 5759 5756 5757 5755 5761 5758 5753 5748 5751 5755 5757 5757 5757 5764 5769 5773 5777 5776 5775 5777 5778 5780 5783 5787 5790 5792 5793 5795 5798 5799 5800 5802 5804 5806 5807 5809 5810 5813 5814 5816 5818 5820
5766 5764 5766 5769 5767 5760 5757 5757 5758 5751 5751 5746 5743 5728 5744 5749 5752 5754 5755 5757 5762 5765 5766 5767 5768 5771 5774 5774 5776 5777 5780 5783 5786 5788 5790 5792 5794 5795 5797 5800 5802 5803 5806 5808 5811 5813 5814 5816 5818
5764 5764 5767 5766 5764 5760 5756 5757 5752 5748 5746 5746 5742 5739 5745 5744 5747 5750 5751 5754 5759 5761 5762 5763 5765 5767 5770 5771 5773 5771 5773 5778 5780 5781 5783 5788 5789 5789 5793 5796 5799 5801 5804 5807 5809 5811 5813 5814 5816
5764 5765 5764 5763 5758 5758 5757 5758 5754 5748 5747 5746 5744 5735 5742 5742 5743 5745 5747 5749 5752 5756 5760 5761 5762 5764 5765 5766 5769 5770 5769 5771 5773 5776 5779 5781 5782 5785 5788 5792 5795 5799 5802 5804 5806 5809 5811 5812 5813
5764 5763 5762 5759 5757 5757 5755 5753 5753 5749 5749 5746 5741 5741 5743 5741 5742 5741 5742 5744 5747 5752 5755 5756 5759 5761 5761 5763 5764 5764 5764 5768 5770 5771 5774 5774 5777 5780 5784 5788 5792 5798 5801 5802 5803 5805 5808 5809 5810
5761 5761 5759 5757 5756 5755 5754 5747 5746 5744 5744 5742 5739 5737 5738 5736 5738 5739 5739 5742 5746 5749 5752 5754 5755 5757 5757 5757 5758 5762 5760 5764 5767 5767 5769 5772 5775 5778 5781 5786 5791 5795 5798 5799 5800 5804 5805 5806 5807
5759 5758 5757 5756 5755 5755 5748 5744 5743 5733 5741 5741 5738 5734 5734 5735 5734 5735 5736 5739 5742 5744 5748 5751 5752 5752 5751 5745 5755 5756 5758 5761 5763 5765 5767 5769 5773 5776 5780 5787 5789 5793 5794 5795 5798 5800 5803 5802 5803
5756 5755 5756 5755 5757 5754 5749 5747 5746 5749 5739 5740 5737 5735 5732 5731 5731 5733 5736 5738 5739 5742 5744 5745 5746 5745 5748 5750 5752 5755 5757 5758 5760 5761 5765 5769 5771 5774 5779 5785 5788 5790 5791 5793 5796 5797 5799 5800 5798
5754 5754 5755 5755 5756 5749 5750 5749 5743 5742 5740 5738 5740 5736 5732 5728 5728 5731 5732 5734 5736 5736 5739 5740 5742 5742 5744 5746 5748 5750 5752 5754 5756 5761 5765 5766 5771 5776 5779 5783 5785 5786 5789 5791 5793 5794 5795 5795 5794
5754 5756 5757 5756 5754 5752 5746 5744 5743 5739 5740 5739 5739 5737 5734 5729 5727 5729 5731 5732 5732 5733 5734 5736 5738 5740 5743 5745 5747 5748 5750 5754 5758 5762 5766 5769 5774 5777 5779 5781 5782 5784 5787 5789 5790 5790 5790 5790 5789
5755 5758 5758 5754 5756 5750 5750 5742 5744 5731 5742 5743 5741 5741 5736 5735 5732 5732 5734 5736 5737 5735 5734 5736 5739 5741 5743 5744 5746 5751 5757 5758 5762 5765 5767 5770 5773 5774 5777 5780 5780 5783 5784 5786 5786 5786 5786 5785 5783
5753 5754 5754 5751 5752 5755 5752 5752 5745 5744 5740 5742 5744 5741 5740 5740 5738 5737 5738 5738 5739 5739 5741 5742 5744 5746 5747 5748 5753 5756 5759 5762 5763 5765 5767 5769 5770 5773 5776 5777 5777 5780 5781 5782 5781 5781 5780 5777 5776
5748 5749 5753 5755 5750 5752 5751 5750 5743 5743 5743 5744 5746 5743 5741 5742 5741 5743 5743 5741 5742 5744 5744 5746 5748 5750 5749 5750 5753 5756 5760 5762 5763 5764 5766 5766 5769 5772 5774 5775 5775 5777 5777 5776 5775 5774 5773 5771 5769
5746 5747 5750 5750 5748 5750 5750 5750 5749 5745 5744 5745 5745 5744 5743 5743 5744 5744 5744 5745 5746 5745 5745 5747 5748 5749 5751 5753 5755 5758 5759 5761 5762 5765 5766 5766 5768 5769 5771 5771 5772 5773 5771 5772 5770 5768 5767 5764 5762
5743 5745 5746 5746 5747 5748 5748 5749 5750 5748 5744 5746 5744 5744 5744 5743 5744 5744 5745 5747 5748 5747 5748 5748 5749 5751 5753 5755 5756 5758 5758 5760 5762 5764 5763 5765 5765 5765 5765 5767 5767 5767 5766 5765 5764 5762 5758 5755 5754
5742 5740 5741 5742 5743 5745 5747 5747 5747 5746 5746 5743 5744 5744 5744 5744 5744 5745 5745 5745 5746 5747 5748 5750 5751 5753 5754 5754 5756 5757 5759 5760 5762 5762 5763 5764 5763 5760 5760 5762 5762 5761 5761 5759 5756 5753 5751 5748 5744
5738 5739 5738 5739 5741 5742 5744 5747 5741 5743 5741 5744 5741 5742 5743 5743 5744 5745 5745 5745 5745 5746 5748 5750 5752 5753 5753 5754 5755 5755 5756 5755 5754 5755 5757 5756 5754 5755 5754 5754 5756 5756 5754 5751 5748 5746 5744 5740 5736
5735 5737 5737 5738 5738 5742 5743 5744 5740 5741 5742 5743 5743 5740 5740 5740 5741 5742 5743 5744 5745 5746 5747 5748 5749 5750 5751 5754 5754 5753 5754 5756 5753 5751 5752 5751 5743 5737 5744 5748 5749 5747 5744 5743 5741 5737 5734 5731 5728
5731 5734 5734 5736 5737 5737 5739 5742 5741 5738 5741 5742 5743 5743 5739 5737 5738 5739 5740 5742 5743 5745 5746 5746 5746 5746 5746 5747 5748 5748 5753 5749 5751 5748 5746 5745 5739 5741 5740 5740 5740 5737 5737 5735 5733 5729 5726 5723 5719
5727 5729 5734 5731 5735 5735 5736 5738 5740 5738 5737 5738 5739 5739 5739 5740 5736 5734 5735 5736 5739 5741 5742 5742 5742 5742 5741 5742 5741 5746 5746 5744 5744 5744 5742 5742 5740 5738 5733 5733 5733 5731 5729 5727 5724 5722 5718 5714 5710
5721 5727 5727 5728 5729 5731 5735 5737 5736 5735 5733 5735 5735 5735 5735 5735 5735 5734 5733 5733 5732 5732 5736 5740 5738 5736 5736 5738 5739 5737 5736 5739 5738 5736 5737 5736 5731 5729 5729 5728 5725 5723 5722 5719 5716 5711 5707 5703 5699
5718 5718 5721 5725 5726 5726 5729 5732 5731 5728 5729 5729 5730 5731 5732 5730 5732 5731 5732 5731 5732 5731 5726 5730 5734 5733 5731 5732 5733 5731 5731 5730 5730 5730 5730 5728 5726 5724 5723 5720 5719 5717 5714 5710 5705 5702 5697 5693 5686
5711 5714 5717 5718 5721 5720 5723 5728 5726 5727 5726 5726 5725 5727 5725 5726 5724 5727 5727 5728 5729 5729 5730 5727 5729 5728 5726 5727 5726 5723 5724 5725 5724 5723 5722 5720 5719 5717 5715 5712 5710 5706 5703 5699 5695 5691 5686 5680 5673